Location: Maiden
(35.5760°N, 81.2120°W)
Time: 10:23:48
(UTC-04:00)

Altair - Visible Passes

Search period start: 04 August 2020 00:00
Search period end: 14 August 2020 00:00
Orbit: 1501 x 1682 km, 47.2° (Epoch: 03 August)

Date Brightness Start Highest point End Pass type
(mag) Time Alt. Az. Time Alt. Az. Time Alt. Az.
04 Aug 8.4 03:25:44 28° SSE 03:27:34 30° SE 03:35:15 10° ENE visible
04 Aug 7.5 05:23:45 17° SW 05:31:34 87° NW 05:40:52 10° NE visible
05 Aug 8.6 03:01:58 27° SE 03:02:29 27° SE 03:09:52 10° ENE visible
05 Aug 7.5 05:00:00 25° SW 05:06:23 88° SE 05:15:42 10° NE visible
06 Aug 8.7 02:38:11 24° ESE 02:38:11 24° ESE 02:44:27 10° ENE visible
06 Aug 7.4 04:36:12 33° SW 04:41:13 83° SE 04:50:32 10° ENE visible
07 Aug 8.9 02:14:21 20° ESE 02:14:21 20° ESE 02:18:57 10° E visible
07 Aug 7.4 04:12:22 43° SW 04:16:03 77° SE 04:25:22 10° ENE visible
07 Aug 8.1 06:12:13 10° W 06:21:19 49° NNW 06:30:12 10° NE visible
08 Aug 9.1 01:50:29 16° E 01:50:29 16° E 01:53:22 10° E visible
08 Aug 7.4 03:48:30 54° SSW 03:50:54 72° SE 04:00:12 10° ENE visible
08 Aug 8.0 05:46:51 10° W 05:56:03 51° NNW 06:05:01 10° NE visible
09 Aug 9.3 01:26:34 12° E 01:26:34 12° E 01:27:42 10° E visible
09 Aug 7.4 03:24:35 62° S 03:25:45 67° SE 03:35:01 10° ENE visible
09 Aug 8.0 05:22:35 14° W 05:30:48 53° NNW 05:39:49 10° NE visible
10 Aug 7.5 03:00:38 62° SE 03:00:38 62° SE 03:09:50 10° ENE visible
10 Aug 7.9 04:58:38 20° W 05:05:32 56° NNW 05:14:38 10° NE visible
11 Aug 7.7 02:36:39 54° ESE 02:36:39 54° ESE 02:44:37 10° ENE visible
11 Aug 7.8 04:34:40 27° W 04:40:17 59° NNW 04:49:28 10° NE visible
12 Aug 8.0 02:12:39 44° E 02:12:39 44° E 02:19:24 10° ENE visible
12 Aug 7.7 04:10:39 35° W 04:15:03 62° NNW 04:24:18 10° NE visible
12 Aug 8.5 06:12:30 10° WNW 06:21:16 40° N 06:29:49 10° ENE visible
13 Aug 8.4 01:48:37 36° E 01:48:37 36° E 01:54:10 10° ENE visible
13 Aug 7.6 03:46:37 45° W 03:49:49 66° NNW 03:59:08 10° NE visible
13 Aug 8.4 05:47:08 10° WNW 05:55:58 41° N 06:04:33 10° ENE visible
